View from above orbital plane
|
View from above satellite
|
Ground track
|
The orbit data is extracted from the following two-line orbital elements,
1 00047U 60007C 21016.19823260 -.00000022 00000-0 20008-4 0 9994
2 00047 66.6670 306.1161 0223742 149.2694 212.1738 14.42126017165359
Epoch (UTC): | 16 January 2021 04:45:27 |
Eccentricity: | 0.0223742 |
inclination: | 66.6670° |
perigee height: | 592 km |
apogee height: | 911 km |
right ascension of ascending node: | 306.1161° |
argument of perigee: | 149.2694° |
revolutions per day: | 14.42126017 |
mean anomaly at epoch: | 212.1738° |
orbit number at epoch: | 16535 |
The dashed part of the orbit path shows where the satellite is in the earth's shadow,
|
|